1485849600.92,22782,10.31,73200.3,-2.09,-16.09,-18.01,0,*50
1485849602.18,22783,10.31,73200.8,-2.07,-15.95,-18.01,0,*59
1485849603.47,22784,10.31,73206.3,-2.07,-15.89,-17.97,0,*53
1485849604.73,22785,10.31,73204.5,-2.07,-16.03,-18.01,0,*53
1485849606.02,22786,10.31,73206.0,-2.07,-16.17,-18.31,0,*56
1485849607.28,22787,10.31,73204.0,-2.09,-16.27,-18.35,0,*5E
1485849608.54,22788,10.31,73206.0,-2.09,-16.23,-18.35,0,*55
1485849609.77,22789,10.31,73204.3,-2.09,-16.09,-18.21,0,*59
1485849611.03,22790,10.31,73204.5,-2.09,-16.27,-18.31,0,*5C
1485849612.29,22791,10.31,73202.8,-2.11,-16.13,-18.21,0,*52
1485849613.55,22792,10.31,73202.8,-2.11,-16.09,-18.17,0,*5F
1485849614.78,22793,10.31,73204.0,-2.11,-15.99,-18.07,0,*55
1485849616.0,22794,10.25,73198.3,-2.11,-15.99,-18.17,0,*53
1485849617.26,22795,10.31,73200.8,-2.09,-16.09,-18.01,0,*56
1485849618.49,22796,10.31,73200.5,-2.09,-15.81,-17.87,0,*57
1485849619.75,22797,10.31,73204.3,-2.09,-15.89,-17.93,0,*5B
1485849621.0,22798,10.31,73204.5,-2.09,-15.81,-17.93,0,*5C
1485849622.21,22799,10.31,73204.0,-2.09,-15.75,-17.83,0,*57
1485849623.44,22800,10.31,73204.0,-2.11,-15.99,-18.07,0,*50
1485849624.67,22801,10.31,73200.8,-2.09,-16.13,-18.21,0,*5D
1485849625.9,22802,10.31,73198.8,-2.09,-16.13,-18.17,0,*5B
1485849627.1,22803,10.31,73198.5,-2.09,-15.99,-18.17,0,*5B
1485849628.29,22804,10.31,73200.0,-2.09,-15.99,-18.17,0,*5C
1485849629.5,22805,10.31,73202.5,-2.09,-16.41,-18.45,0,*5C
1485849630.74,22806,10.31,73200.5,-2.11,-16.41,-18.49,0,*5A
1485849631.99,22807,10.31,73200.5,-2.11,-16.51,-18.65,0,*54
1485849633.23,22808,10.31,73198.8,-2.11,-16.37,-18.45,0,*59
1485849634.45,22809,10.31,73202.0,-2.11,-15.99,-18.17,0,*58
1485849635.71,22810,10.31,73200.3,-2.11,-16.13,-18.17,0,*51
1485849636.94,22811,10.25,73202.3,-2.11,-16.37,-18.49,0,*5D
1485849638.19,22812,10.31,73200.8,-2.13,-16.27,-18.41,0,*55
1485849639.42,22813,10.25,73200.0,-2.13,-16.45,-18.65,0,*56
1485849640.68,22814,10.31,73202.0,-2.13,-16.17,-18.21,0,*56
1485849641.93,22815,10.31,73200.5,-2.13,-16.17,-18.25,0,*53
1485849643.19,22816,10.31,73202.8,-2.13,-16.55,-18.55,0,*51
1485849644.42,22817,10.31,73200.0,-2.13,-16.41,-18.41,0,*50
1485849645.62,22818,10.31,73206.3,-2.15,-16.37,-18.41,0,*58
1485849646.91,22819,10.31,73204.0,-2.13,-16.27,-18.35,0,*5D
1485849648.17,22820,10.31,73204.3,-2.15,-16.31,-18.31,0,*52
1485849649.43,22821,10.25,73198.3,-2.15,-16.23,-18.31,0,*50
1485849650.67,22822,10.31,73200.8,-2.15,-16.55,-18.55,0,*50
1485849651.88,22823,10.25,73196.5,-2.15,-16.59,-18.69,0,*52
1485849653.09,22824,10.25,73198.3,-2.15,-16.45,-18.45,0,*56
1485849654.35,22825,10.31,73200.3,-2.15,-16.31,-18.31,0,*57
1485849655.56,22826,10.31,73198.8,-2.15,-16.75,-18.83,0,*5D
1485849656.78,22827,10.31,73198.3,-2.15,-16.45,-18.59,0,*58
1485849658.04,22828,10.31,73202.0,-2.17,-16.51,-18.69,0,*53
1485849659.26,22829,10.25,73202.3,-2.17,-16.79,-18.83,0,*5C
1485849660.51,22830,10.31,73202.0,-2.17,-16.65,-18.83,0,*59
1485849661.77,22831,10.25,73202.0,-2.17,-16.37,-18.55,0,*54
1485849663.04,22832,10.25,73200.3,-2.17,-16.51,-18.59,0,*5B
1485849664.29,22833,10.31,73202.8,-2.17,-16.31,-18.49,0,*5D
1485849665.55,22834,10.31,73202.3,-2.17,-16.65,-18.73,0,*52
1485849666.77,22835,10.31,73202.3,-2.19,-16.93,-18.93,0,*5A
1485849668.0,22836,10.31,73204.5,-2.19,-16.83,-18.93,0,*58
1485849669.19,22837,10.31,73208.5,-2.19,-16.93,-19.07,0,*54
1485849670.47,22838,10.31,73206.8,-2.21,-16.69,-18.89,0,*52
1485849671.71,22839,10.31,73202.3,-2.21,-16.41,-18.45,0,*59
1485849672.97,22840,10.31,73200.8,-2.21,-16.23,-18.45,0,*53
1485849674.21,22841,10.31,73200.0,-2.21,-16.41,-18.65,0,*54
1485849675.46,22842,10.31,73200.0,-2.21,-16.69,-18.79,0,*50
1485849676.71,22843,10.31,73200.0,-2.21,-16.69,-18.99,0,*5F
1485849677.95,22844,10.31,73198.8,-2.21,-16.93,-19.13,0,*5E
1485849679.2,22845,10.31,73200.3,-2.21,-16.79,-18.93,0,*52
1485849680.41,22846,10.31,73198.8,-2.23,-16.89,-18.99,0,*56
1485849681.62,22847,10.31,73202.0,-2.23,-16.45,-18.65,0,*54
1485849682.83,22848,10.31,73200.8,-2.23,-16.55,-18.79,0,*57
1485849684.04,22849,10.25,73200.3,-2.23,-16.59,-18.83,0,*5F
1485849685.25,22850,10.31,73200.0,-2.23,-16.55,-18.79,0,*5E
1485849686.48,22851,10.25,73198.0,-2.23,-16.75,-18.93,0,*59
1485849687.7,22852,10.31,73200.8,-2.27,-16.83,-19.13,0,*5E
1485849688.9,22853,10.31,73204.5,-2.27,-16.55,-18.83,0,*5C
1485849690.11,22854,10.31,73202.0,-2.27,-16.59,-18.83,0,*57
1485849691.37,22855,10.31,73204.0,-2.29,-16.59,-18.89,0,*52
1485849692.6,22856,10.31,73204.0,-2.29,-16.89,-19.17,0,*5A
1485849693.86,22857,10.25,73200.8,-2.29,-17.07,-19.17,0,*5C
1485849695.09,22858,10.31,73204.0,-2.29,-16.75,-18.99,0,*50
1485849696.3,22859,10.25,73202.5,-2.31,-16.75,-18.99,0,*58
1485849697.54,22860,10.25,73198.5,-2.29,-16.89,-19.13,0,*5B
1485849698.75,22861,10.31,73202.8,-2.31,-16.75,-19.03,0,*51
1485849699.99,22862,10.31,73206.8,-2.31,-16.65,-18.99,0,*51
1485849701.19,22863,10.31,73204.5,-2.31,-16.79,-18.99,0,*5D
1485849702.4,22864,10.25,73200.5,-2.31,-16.79,-18.99,0,*5A
1485849703.63,22865,10.31,73202.5,-2.33,-16.83,-19.07,0,*5A
1485849704.87,22866,10.31,73200.5,-2.31,-16.65,-19.03,0,*57
1485849706.16,22867,10.25,73200.3,-2.33,-17.07,-19.27,0,*57
1485849707.42,22868,10.31,73202.5,-2.33,-16.93,-19.27,0,*54
1485849708.61,22869,10.31,73200.8,-2.35,-16.93,-19.07,0,*51
1485849709.88,22870,10.31,73202.0,-2.35,-17.07,-19.41,0,*57
1485849711.1,22871,10.25,73198.8,-2.35,-16.93,-19.23,0,*5E
1485849712.31,22872,10.31,73200.8,-2.35,-16.79,-19.07,0,*5F
1485849713.51,22873,10.25,73198.0,-2.35,-16.79,-19.03,0,*5A
1485849714.74,22874,10.31,73200.8,-2.35,-16.69,-19.03,0,*5C
1485849716.01,22875,10.25,73200.5,-2.37,-16.45,-18.93,0,*59
1485849717.27,22876,10.31,73202.3,-2.37,-16.55,-18.93,0,*5B
1485849718.51,22877,10.31,73202.3,-2.37,-16.83,-19.13,0,*58
1485849719.74,22878,10.31,73200.5,-2.35,-16.93,-19.23,0,*57
1485849721.0,22879,10.31,73200.0,-2.37,-16.97,-19.27,0,*54
1485849722.29,22880,10.25,73200.0,-2.37,-17.03,-19.41,0,*5E
1485849723.53,22881,10.31,73202.8,-2.39,-17.07,-19.47,0,*53
1485849724.8,22882,10.31,73200.0,-2.41,-17.17,-19.51,0,*59
1485849726.06,22883,10.31,73200.8,-2.41,-17.07,-19.51,0,*59
1485849727.32,22884,10.25,73202.0,-2.41,-17.03,-19.37,0,*5A
1485849728.58,22885,10.31,73196.8,-2.41,-17.07,-19.37,0,*5F
1485849729.84,22886,10.31,73192.3,-2.41,-17.07,-19.47,0,*5B
1485849731.07,22887,10.31,73196.5,-2.41,-17.31,-19.75,0,*5E
1485849732.33,22888,10.25,73192.3,-2.43,-17.11,-19.41,0,*56
1485849733.59,22889,10.31,73196.5,-2.43,-17.11,-19.57,0,*50
1485849734.83,22890,10.25,73196.3,-2.45,-17.07,-19.51,0,*5F
1485849736.09,22891,10.25,73194.0,-2.45,-17.07,-19.41,0,*5F
1485849737.35,22892,10.31,73196.8,-2.45,-17.21,-19.65,0,*5E
1485849738.61,22893,10.31,73198.5,-2.43,-17.25,-19.81,0,*57
1485849739.84,22894,10.25,73198.3,-2.45,-17.11,-19.51,0,*5C
1485849741.07,22895,10.31,73196.5,-2.49,-17.17,-19.71,0,*55
1485849742.29,22896,10.31,73200.8,-2.49,-17.11,-19.37,0,*52
1485849743.52,22897,10.31,73202.5,-2.49,-16.89,-19.27,0,*52
1485849744.75,22898,10.31,73202.5,-2.49,-16.89,-19.27,0,*5D
1485849745.98,22899,10.31,73206.3,-2.49,-16.75,-19.23,0,*5B
1485849747.23,22900,10.31,73200.5,-2.49,-17.03,-19.41,0,*5E
1485849748.49,22901,10.25,73202.3,-2.49,-16.69,-19.23,0,*56
1485849749.71,22902,10.25,73200.3,-2.51,-16.55,-18.99,0,*53
1485849750.94,22903,10.31,73204.0,-2.51,-16.59,-19.07,0,*58
1485849752.19,22904,10.25,73200.5,-2.51,-16.45,-18.93,0,*5E
1485849753.42,22905,10.31,73200.3,-2.51,-16.45,-18.99,0,*55
1485849754.65,22906,10.25,73200.5,-2.51,-16.41,-18.79,0,*5C
1485849755.87,22907,10.25,73202.5,-2.51,-16.41,-18.83,0,*58
1485849757.1,22908,10.25,73200.0,-2.51,-16.37,-18.83,0,*56
1485849758.3,22909,10.31,73202.0,-2.49,-16.37,-18.79,0,*5B
1485849759.53,22910,10.31,73200.3,-2.49,-16.69,-19.13,0,*55
1485849760.79,22911,10.25,73198.5,-2.51,-16.83,-19.27,0,*5E
1485849762.08,22912,10.25,73198.8,-2.51,-17.03,-19.57,0,*53
1485849763.35,22913,10.25,73198.5,-2.51,-16.69,-19.23,0,*5C
1485849764.58,22914,10.25,73200.5,-2.51,-16.97,-19.47,0,*58
1485849765.84,22915,10.25,73198.5,-2.51,-16.89,-19.27,0,*50
1485849767.09,22916,10.25,73200.5,-2.51,-16.75,-19.23,0,*54
1485849768.31,22917,10.31,73200.8,-2.49,-16.69,-19.07,0,*57
1485849769.59,22918,10.25,73200.0,-2.51,-16.69,-19.23,0,*57
1485849770.84,22919,10.25,73202.3,-2.51,-16.83,-19.23,0,*52
1485849772.07,22920,10.25,73200.5,-2.51,-16.89,-19.37,0,*57
1485849773.33,22921,10.25,73200.0,-2.51,-16.69,-19.13,0,*5E
1485849774.56,22922,10.31,73206.3,-2.53,-17.07,-19.51,0,*50
1485849775.85,22923,10.25,73204.3,-2.55,-17.17,-19.65,0,*51
1485849777.09,22924,10.25,73206.0,-2.53,-16.79,-19.27,0,*5F
1485849778.29,22925,10.25,73204.3,-2.53,-16.45,-19.03,0,*57
1485849779.52,22926,10.25,73204.3,-2.55,-16.75,-19.17,0,*54
1485849780.73,22927,10.31,73206.8,-2.53,-16.89,-19.47,0,*55
1485849781.96,22928,10.25,73202.3,-2.55,-16.75,-19.17,0,*5A
1485849783.16,22929,10.31,73204.8,-2.53,-16.45,-18.99,0,*59
1485849784.4,22930,10.25,73198.8,-2.55,-16.75,-19.17,0,*53
1485849785.63,22931,10.31,73202.8,-2.53,-16.89,-19.31,0,*53
1485849786.88,22932,10.25,73198.3,-2.55,-16.93,-19.31,0,*5D
1485849788.11,22933,10.25,73202.0,-2.53,-16.93,-19.41,0,*5D
1485849789.35,22934,10.31,73200.8,-2.55,-16.59,-19.13,0,*5D
1485849790.58,22935,10.31,73202.5,-2.53,-16.65,-19.17,0,*51
1485849791.84,22936,10.25,73202.3,-2.55,-16.75,-19.27,0,*56
1485849793.1,22937,10.31,73202.8,-2.55,-16.89,-19.31,0,*53
1485849794.34,22938,10.31,73202.5,-2.53,-16.75,-19.27,0,*5E
1485849795.57,22939,10.25,73200.0,-2.55,-16.75,-19.17,0,*5A
1485849796.83,22940,10.31,73198.0,-2.55,-16.75,-19.27,0,*57
1485849798.11,22941,10.25,73196.3,-2.55,-16.65,-19.27,0,*57
1485849799.37,22942,10.31,73202.5,-2.57,-17.07,-19.81,0,*5F
1485849800.57,22943,10.25,73196.0,-2.57,-16.97,-19.47,0,*5C
1485849801.78,22944,10.25,73198.0,-2.57,-16.83,-19.37,0,*59
1485849803.01,22945,10.25,73200.5,-2.55,-16.59,-19.17,0,*5F
1485849804.27,22946,10.25,73200.5,-2.55,-16.65,-19.17,0,*53
1485849805.5,22947,10.25,73202.0,-2.57,-16.93,-19.31,0,*5D
1485849806.75,22948,10.25,73202.5,-2.57,-17.25,-19.81,0,*55
1485849808.01,22949,10.25,73200.0,-2.57,-17.11,-19.65,0,*59
1485849809.24,22950,10.25,73196.8,-2.59,-16.83,-19.37,0,*52
1485849810.48,22951,10.25,73202.5,-2.55,-16.59,-19.17,0,*5A
1485849811.73,22952,10.25,73200.5,-2.57,-16.69,-19.23,0,*5F
1485849812.96,22953,10.31,73206.3,-2.55,-16.79,-19.47,0,*5F
1485849814.25,22954,10.25,73198.3,-2.59,-17.03,-19.57,0,*59
1485849815.53,22955,10.25,73196.5,-2.59,-17.11,-19.61,0,*5E
1485849816.82,22956,10.31,73200.3,-2.59,-17.11,-19.61,0,*5D
1485849818.08,22957,10.25,73200.8,-2.59,-17.03,-19.51,0,*5C
1485849819.28,22958,10.25,73202.0,-2.57,-16.97,-19.47,0,*56
1485849820.54,22959,10.25,73202.0,-2.59,-17.25,-19.75,0,*50
1485849821.77,22960,10.25,73200.5,-2.59,-17.31,-19.91,0,*55
1485849823.0,22961,10.25,73196.0,-2.61,-17.11,-19.71,0,*53
1485849824.23,22962,10.25,73196.3,-2.61,-17.45,-19.91,0,*5F
1485849825.53,22963,10.25,73200.0,-2.63,-17.17,-19.57,0,*51
1485849826.82,22964,10.25,73202.3,-2.63,-17.07,-19.61,0,*52
1485849828.05,22965,10.25,73198.5,-2.61,-17.31,-19.85,0,*5E
1485849829.34,22966,10.31,73202.5,-2.63,-17.07,-19.57,0,*55
1485849830.6,22967,10.25,73200.8,-2.63,-17.21,-19.75,0,*50
1485849831.84,22968,10.25,73202.3,-2.63,-17.35,-19.95,0,*54
1485849833.13,22969,10.25,73200.5,-2.63,-17.21,-19.61,0,*5B
1485849834.36,22970,10.25,73198.3,-2.65,-17.03,-19.47,0,*51
1485849835.62,22971,10.25,73198.8,-2.65,-17.07,-19.61,0,*50
1485849836.88,22972,10.25,73200.3,-2.63,-17.21,-19.75,0,*54
1485849838.12,22973,10.25,73200.8,-2.65,-17.35,-19.81,0,*5D
1485849839.33,22974,10.25,73198.8,-2.65,-17.35,-19.91,0,*5B
1485849840.59,22975,10.25,73196.5,-2.65,-17.17,-19.61,0,*55
1485849841.88,22976,10.25,73202.8,-2.67,-17.41,-19.85,0,*5D
1485849843.17,22977,10.25,73196.5,-2.63,-17.03,-19.41,0,*56
1485849844.45,22978,10.25,73200.5,-2.67,-17.11,-19.61,0,*5C
1485849845.73,22979,10.25,73198.5,-2.67,-17.25,-19.81,0,*54
1485849846.96,22980,10.25,73200.0,-2.65,-17.31,-19.81,0,*55
1485849848.22,22981,10.25,73202.0,-2.67,-17.21,-19.47,0,*5D
1485849849.5,22982,10.25,73200.8,-2.67,-17.25,-19.81,0,*50
1485849850.79,22983,10.25,73198.5,-2.67,-17.21,-19.65,0,*5F
1485849852.06,22984,10.31,73206.0,-2.69,-17.21,-19.61,0,*52
1485849853.34,22985,10.25,73202.8,-2.67,-17.41,-19.81,0,*55
1485849854.6,22986,10.25,73200.3,-2.67,-17.69,-20.15,0,*5B
1485849855.84,22987,10.25,73198.8,-2.69,-17.35,-19.65,0,*50
1485849857.08,22988,10.25,73202.0,-2.69,-17.21,-19.51,0,*5D
1485849858.32,22989,10.25,73202.5,-2.69,-17.35,-19.81,0,*54
1485849859.53,22990,10.25,73200.3,-2.73,-17.49,-19.95,0,*59
1485849860.75,22991,10.25,73198.8,-2.69,-17.49,-19.95,0,*53
1485849862.01,22992,10.25,73200.0,-2.73,-17.25,-19.65,0,*5E
1485849863.28,22993,10.25,73198.5,-2.69,-17.25,-19.65,0,*54
1485849864.52,22994,10.25,73204.0,-2.69,-17.35,-19.61,0,*56
1485849865.76,22995,10.25,73204.3,-2.73,-17.87,-20.35,0,*5E
1485849867.01,22996,10.25,73200.8,-2.73,-17.79,-20.15,0,*5E
1485849868.24,22997,10.25,73200.8,-2.73,-17.17,-19.51,0,*5D
1485849869.48,22998,10.25,73200.0,-2.73,-17.25,-19.51,0,*53
1485849870.71,22999,10.25,73200.5,-2.73,-17.45,-19.71,0,*56
1485849871.98,23000,10.25,73202.0,-2.75,-17.17,-19.51,0,*5D
1485849873.22,23001,10.25,73200.5,-2.69,-17.41,-19.71,0,*50
1485849874.49,23002,10.25,73204.8,-2.73,-17.17,-19.57,0,*5F
1485849875.76,23003,10.25,73206.3,-2.75,-17.31,-19.57,0,*5C
1485849877.05,23004,10.25,73200.8,-2.75,-17.17,-19.41,0,*58
1485849878.33,23005,10.25,73202.8,-2.75,-17.03,-19.23,0,*58
1485849879.6,23006,10.25,73202.8,-2.73,-17.25,-19.57,0,*5A
1485849880.87,23007,10.25,73204.5,-2.75,-17.45,-19.71,0,*5F
1485849882.16,23008,10.25,73206.8,-2.75,-17.41,-19.65,0,*51
1485849883.42,23009,10.25,73204.8,-2.77,-17.45,-19.71,0,*53
1485849884.71,23010,10.25,73206.5,-2.77,-17.21,-19.57,0,*5D
1485849885.98,23011,10.25,73200.8,-2.75,-17.03,-19.37,0,*58
1485849887.26,23012,10.25,73206.5,-2.75,-17.59,-19.85,0,*5D
1485849888.56,23013,10.31,73206.3,-2.75,-17.45,-19.57,0,*5E
1485849889.85,23014,10.25,73204.5,-2.75,-17.11,-19.41,0,*5F
1485849891.08,23015,10.25,73204.0,-2.77,-16.89,-19.13,0,*5B
1485849892.37,23016,10.25,73206.3,-2.75,-17.03,-19.27,0,*5E
1485849893.66,23017,10.25,73200.0,-2.75,-17.41,-19.65,0,*5F
1485849894.9,23018,10.25,73204.5,-2.73,-17.17,-19.37,0,*52
1485849896.16,23019,10.25,73202.8,-2.75,-17.31,-19.41,0,*50
1485849897.45,23020,10.25,73204.8,-2.77,-17.21,-19.41,0,*59
1485849898.71,23021,10.25,73202.8,-2.75,-17.59,-19.75,0,*52
1485849899.98,23022,10.25,73204.5,-2.75,-17.17,-19.37,0,*5D
1485849901.2,23023,10.25,73204.5,-2.77,-17.31,-19.47,0,*5D
1485849902.49,23024,10.25,73206.8,-2.75,-17.03,-19.23,0,*5B
1485849903.75,23025,10.25,73202.8,-2.73,-17.41,-19.41,0,*5E
1485849905.04,23026,10.25,73202.5,-2.75,-17.59,-19.65,0,*54
1485849906.27,23027,10.25,73206.8,-2.77,-17.49,-19.71,0,*53
1485849907.53,23028,10.25,73206.5,-2.77,-17.49,-19.61,0,*5D
1485849908.82,23029,10.25,73204.5,-2.77,-17.59,-19.57,0,*58
1485849910.11,23030,10.25,73206.0,-2.77,-17.45,-19.57,0,*5D
1485849911.38,23031,10.25,73206.3,-2.75,-17.41,-19.51,0,*5C
1485849912.63,23032,10.25,73208.0,-2.77,-17.31,-19.27,0,*5B
1485849913.92,23033,10.25,73202.5,-2.77,-17.45,-19.41,0,*59
1485849915.18,23034,10.25,73204.0,-2.75,-17.31,-19.41,0,*5F
1485849916.44,23035,10.25,73204.5,-2.77,-17.31,-19.27,0,*5C
1485849917.72,23036,10.25,73204.8,-2.77,-17.25,-19.41,0,*5A
1485849918.99,23037,10.25,73204.0,-2.75,-17.41,-19.37,0,*5A
1485849920.25,23038,10.25,73204.3,-2.75,-17.11,-19.13,0,*56
1485849921.5,23039,10.25,73206.8,-2.77,-17.31,-19.27,0,*50
1485849922.8,23040,10.25,73206.8,-2.75,-17.41,-19.41,0,*5B
1485849924.06,23041,10.25,73206.0,-2.77,-17.35,-19.41,0,*5B
1485849925.32,23042,10.25,73200.8,-2.75,-17.45,-19.47,0,*5B
1485849926.59,23043,10.25,73200.3,-2.73,-17.41,-19.27,0,*5E
1485849927.85,23044,10.25,73202.8,-2.75,-17.17,-19.07,0,*5E
1485849929.11,23045,10.25,73202.3,-2.75,-17.45,-19.51,0,*5B
1485849930.34,23046,10.25,73204.0,-2.77,-17.49,-19.47,0,*51
1485849931.57,23047,10.25,73200.5,-2.77,-17.31,-19.17,0,*5A
1485849932.84,23048,10.25,73204.0,-2.77,-17.17,-19.13,0,*55
1485849934.1,23049,10.25,73206.5,-2.77,-17.35,-19.27,0,*53
1485849935.33,23050,10.25,73202.3,-2.77,-17.31,-19.13,0,*58
1485849936.61,23051,10.25,73206.0,-2.77,-17.17,-18.89,0,*5F
1485849937.87,23052,10.25,73204.8,-2.77,-17.17,-18.83,0,*56
1485849939.12,23053,10.25,73206.0,-2.75,-17.11,-18.99,0,*58
1485849940.38,23054,10.25,73208.8,-2.75,-17.17,-19.07,0,*5F
1485849941.63,23055,10.25,73204.3,-2.75,-17.11,-19.07,0,*58
1485849942.86,23056,10.25,73208.8,-2.75,-17.31,-19.13,0,*5C
1485849944.1,23057,10.31,73208.5,-2.77,-17.35,-19.17,0,*5F
1485849945.32,23058,10.25,73202.5,-2.75,-17.31,-19.07,0,*57
1485849946.62,23059,10.25,73206.0,-2.75,-17.45,-19.27,0,*57
1485849947.91,23060,10.25,73204.5,-2.75,-17.45,-19.27,0,*5D
1485849949.14,23061,10.25,73206.8,-2.75,-17.31,-18.99,0,*5B
1485849950.4,23062,10.25,73200.8,-2.75,-17.45,-19.13,0,*58
1485849951.69,23063,10.25,73202.3,-2.75,-17.59,-19.41,0,*53
1485849952.98,23064,10.25,73202.3,-2.75,-17.55,-19.27,0,*58
1485849954.26,23065,10.25,73210.0,-2.77,-17.59,-19.31,0,*50
1485849955.54,23066,10.25,73204.8,-2.77,-17.59,-19.31,0,*53
1485849956.82,23067,10.25,73200.0,-2.75,-17.55,-19.23,0,*5F
1485849958.09,23068,10.25,73204.3,-2.75,-17.45,-19.13,0,*52
1485849959.34,23069,10.25,73204.0,-2.77,-17.31,-18.93,0,*5B
1485849960.57,23070,10.25,73204.0,-2.77,-17.35,-18.99,0,*5D
1485849961.83,23071,10.25,73206.8,-2.77,-17.45,-19.03,0,*59
1485849963.06,23072,10.25,73208.3,-2.75,-17.31,-18.83,0,*52
1485849964.29,23073,10.25,73206.3,-2.77,-17.35,-18.99,0,*5E
1485849965.54,23074,10.25,73206.5,-2.77,-17.73,-19.31,0,*58
1485849966.83,23075,10.25,73206.0,-2.75,-17.41,-18.93,0,*53
1485849968.09,23076,10.25,73204.3,-2.75,-17.45,-18.99,0,*5E
1485849969.35,23077,10.25,73206.3,-2.75,-17.25,-18.79,0,*57
1485849970.58,23078,10.25,73204.5,-2.77,-17.49,-19.03,0,*5C
1485849971.81,23079,10.25,73204.5,-2.77,-17.49,-19.13,0,*5C
1485849973.04,23080,10.25,73206.0,-2.77,-17.35,-18.83,0,*59
1485849974.27,23081,10.25,73204.5,-2.77,-17.49,-18.99,0,*58
1485849975.53,23082,10.25,73206.8,-2.75,-17.25,-18.69,0,*5C
1485849976.76,23083,10.25,73206.8,-2.77,-17.49,-18.99,0,*5A
1485849977.99,23084,10.25,73210.0,-2.77,-17.49,-18.99,0,*5D
1485849979.24,23085,10.25,73208.0,-2.77,-17.35,-18.89,0,*56
1485849980.47,23086,10.25,73210.5,-2.77,-17.31,-18.69,0,*5F
1485849981.73,23087,10.25,73210.3,-2.75,-17.41,-18.83,0,*5F
1485849982.96,23088,10.25,73210.3,-2.77,-17.31,-18.73,0,*5A
1485849984.19,23089,10.25,73206.5,-2.77,-17.49,-18.99,0,*50
1485849985.42,23090,10.25,73206.5,-2.77,-17.49,-18.99,0,*58
1485849986.65,23091,10.25,73210.5,-2.77,-17.73,-19.13,0,*53
1485849987.91,23092,10.25,73206.3,-2.77,-17.83,-19.31,0,*5F
1485849989.17,23093,10.25,73210.5,-2.75,-17.41,-18.79,0,*5F
1485849990.45,23094,10.25,73208.5,-2.77,-17.45,-18.89,0,*51
1485849991.71,23095,10.25,73206.3,-2.77,-17.45,-18.69,0,*5E
1485849992.94,23096,10.25,73204.0,-2.77,-17.31,-18.69,0,*5E
1485849994.17,23097,10.25,73206.8,-2.77,-17.31,-18.69,0,*5F
1485849995.41,23098,10.25,73206.8,-2.77,-17.35,-18.69,0,*54
1485849996.64,23099,10.25,73210.5,-2.77,-17.35,-18.69,0,*55
1485849997.91,23100,10.25,73208.0,-2.75,-17.17,-18.49,0,*54
1485849999.17,23101,10.25,73210.3,-2.75,-17.03,-18.21,0,*5E
1485850000.43,23102,10.25,73206.3,-2.77,-17.17,-18.41,0,*5C
1485850001.66,23103,10.25,73208.3,-2.77,-17.35,-18.65,0,*5B
1485850002.93,23104,10.25,73212.0,-2.77,-17.45,-18.65,0,*5B
1485850004.18,23105,10.25,73212.5,-2.75,-17.31,-18.59,0,*54
1485850005.44,23106,10.25,73210.3,-2.75,-17.41,-18.49,0,*51
1485850006.7,23107,10.25,73208.5,-2.77,-17.17,-18.41,0,*59
1485850007.93,23108,10.25,73210.0,-2.73,-17.11,-18.21,0,*52
1485850009.16,23109,10.25,73214.3,-2.75,-17.31,-18.49,0,*59
1485850010.4,23110,10.25,73210.0,-2.77,-17.49,-18.65,0,*52
1485850011.66,23111,10.25,73208.0,-2.75,-17.41,-18.49,0,*57
1485850012.9,23112,10.25,73208.8,-2.73,-17.45,-18.65,0,*58
1485850014.16,23113,10.25,73208.3,-2.75,-17.45,-18.65,0,*5F
1485850015.43,23114,10.25,73210.5,-2.75,-17.25,-18.45,0,*5C
1485850016.72,23115,10.25,73210.8,-2.75,-17.11,-18.31,0,*59
1485850018.0,23116,10.25,73212.8,-2.77,-17.45,-18.55,0,*5B
1485850019.29,23117,10.25,73210.3,-2.75,-17.41,-18.55,0,*5C
1485850020.52,23118,10.25,73208.3,-2.75,-17.31,-18.45,0,*55
1485850021.76,23119,10.25,73210.8,-2.77,-17.35,-18.49,0,*5E
1485850022.99,23120,10.25,73212.0,-2.75,-17.73,-18.83,0,*52
1485850024.22,23121,10.25,73208.5,-2.75,-17.73,-18.65,0,*5B
1485850025.5,23122,10.25,73212.0,-2.75,-17.55,-18.59,0,*53
1485850026.72,23123,10.25,73208.0,-2.77,-17.73,-18.99,0,*58
1485850027.98,23124,10.25,73208.8,-2.75,-17.55,-18.65,0,*5A
1485850029.24,23125,10.25,73206.0,-2.77,-17.45,-18.49,0,*56
1485850030.51,23126,10.25,73208.5,-2.77,-17.35,-18.35,0,*59
1485850031.77,23127,10.25,73206.8,-2.77,-17.35,-18.35,0,*58
1485850033.06,23128,10.25,73204.3,-2.77,-17.45,-18.35,0,*50
1485850034.32,23129,10.25,73210.0,-2.75,-17.25,-18.17,0,*55
1485850035.61,23130,10.25,73212.0,-2.77,-17.45,-18.35,0,*59
1485850036.87,23131,10.25,73208.3,-2.77,-17.21,-18.21,0,*5F
1485850038.12,23132,10.25,73208.8,-2.77,-17.17,-18.17,0,*5C
1485850039.39,23133,10.25,73208.3,-2.75,-17.17,-18.17,0,*5F
1485850040.63,23134,10.25,73210.5,-2.75,-16.97,-17.87,0,*57
1485850041.87,23135,10.25,73210.8,-2.73,-17.17,-18.07,0,*5E
1485850043.1,23136,10.25,73208.0,-2.73,-17.25,-18.17,0,*5D
1485850044.33,23137,10.25,73208.5,-2.77,-17.31,-18.11,0,*5B
1485850045.57,23138,10.25,73214.0,-2.73,-17.25,-18.07,0,*52
1485850046.83,23139,10.25,73208.8,-2.75,-17.45,-18.45,0,*55
1485850048.09,23140,10.25,73210.3,-2.77,-17.59,-18.41,0,*50
1485850049.34,23141,10.25,73210.8,-2.77,-17.59,-18.41,0,*51
1485850050.63,23142,10.25,73214.5,-2.75,-17.17,-18.01,0,*5E
1485850051.93,23143,10.25,73210.3,-2.75,-17.17,-18.01,0,*5F
1485850053.19,23144,10.25,73208.3,-2.73,-17.17,-17.93,0,*5A
1485850054.45,23145,10.25,73210.0,-2.75,-17.03,-17.87,0,*5D
1485850055.74,23146,10.25,73210.0,-2.75,-17.17,-17.93,0,*5E
1485850057.01,23147,10.25,73210.0,-2.75,-17.41,-18.21,0,*5A
1485850058.26,23148,10.25,73208.3,-2.77,-17.45,-18.25,0,*57
1485850059.56,23149,10.25,73208.8,-2.75,-17.45,-18.31,0,*51
1485850060.83,23150,10.25,73206.8,-2.75,-17.45,-18.21,0,*58
1485850062.06,23151,10.25,73208.0,-2.73,-17.41,-18.17,0,*5E
1485850063.35,23152,10.25,73208.8,-2.77,-17.21,-17.97,0,*58
1485850064.58,23153,10.25,73208.0,-2.75,-16.97,-17.73,0,*5D
1485850065.82,23154,10.25,73208.8,-2.75,-16.89,-17.69,0,*5E
1485850067.06,23155,10.25,73208.8,-2.75,-16.97,-17.73,0,*5B
1485850068.32,23156,10.25,73208.0,-2.75,-17.03,-17.73,0,*54
1485850069.58,23157,10.25,73208.3,-2.75,-17.11,-17.87,0,*5D
1485850070.87,23158,10.25,73206.8,-2.75,-17.17,-17.79,0,*55
1485850072.13,23159,10.25,73206.8,-2.73,-17.11,-17.79,0,*54
1485850073.38,23160,10.25,73214.8,-2.73,-17.11,-17.79,0,*5E
1485850074.62,23161,10.25,73208.0,-2.73,-17.45,-18.07,0,*58
1485850075.85,23162,10.25,73208.5,-2.73,-17.31,-18.01,0,*5E
1485850077.08,23163,10.25,73208.0,-2.73,-17.31,-17.93,0,*5B
1485850078.37,23164,10.25,73210.0,-2.75,-17.41,-18.01,0,*59
1485850079.64,23165,10.25,73210.5,-2.75,-17.41,-17.87,0,*59
1485850080.93,23166,10.25,73208.3,-2.75,-17.41,-17.93,0,*5F
1485850082.19,23167,10.25,73210.5,-2.75,-17.11,-17.73,0,*55
1485850083.43,23168,10.25,73210.0,-2.75,-16.97,-17.69,0,*5E
1485850084.69,23169,10.25,73210.0,-2.75,-16.89,-17.59,0,*53
1485850085.96,23170,10.25,73210.5,-2.75,-16.83,-17.45,0,*5C
1485850087.22,23171,10.25,73208.8,-2.75,-16.89,-17.55,0,*56
1485850088.46,23172,10.25,73208.8,-2.73,-16.89,-17.45,0,*52
1485850089.69,23173,10.25,73210.8,-2.73,-16.83,-17.45,0,*59
1485850090.95,23174,10.25,73212.5,-2.73,-16.69,-17.25,0,*5C
1485850092.15,23175,10.25,73212.8,-2.73,-16.75,-17.31,0,*55
1485850093.39,23176,10.25,73210.5,-2.73,-17.03,-17.69,0,*5B
1485850094.6,23177,10.25,73210.3,-2.73,-17.31,-17.83,0,*5F
1485850095.83,23178,10.25,73212.5,-2.73,-17.11,-17.73,0,*5D
1485850097.07,23179,10.25,73214.0,-2.73,-17.41,-17.87,0,*52
1485850098.33,23180,10.25,73214.5,-2.73,-17.45,-17.93,0,*55
1485850099.59,23181,10.25,73210.8,-2.73,-17.55,-18.01,0,*51